Weather History for Marion, OH

Change the Weather History Date:

Friday, January 31, 2014

  Actual Average (KDLZ) Record (KDLZ)
Temperature  
Mean Temperature 30 °F -  
Max Temperature 33 °F 33 °F 59 °F (1988)
Min Temperature 28 °F 18 °F -6 °F (1972)
Degree Days  
Heating Degree Days 34    
Moisture  
Dew Point 23 °F    
Average Humidity 77    
Maximum Humidity 96    
Minimum Humidity 48    
Precipitation  
Precipitation 0.00 in - - ()
Sea Level Pressure  
Sea Level Pressure 30.12 in    
Wind  
Wind Speed 8 mph (South)    
Max Wind Speed 18 mph    
Max Gust Speed -    
Visibility 5 miles    
Events Snow    
Averages and records for this station are not official NWS values.
T = Trace of Precipitation, MM = Missing Value Source: NWS Daily Summary

Daily Weather History Graph

Daily Weather History Graph

Search for Another Location

Airport:

Trip Planner

Search our weather history database for the weather conditions in past years. The results will help you decide how hot, cold, wet, or windy it might be!

Date:

Astronomy

Jan. 31, 2014 Rise Set
Actual Time 7:42 AM EST 5:48 PM EST
Civil Twilight 7:14 AM EST 6:17 PM EST
Nautical Twilight 6:41 AM EST 6:50 PM EST
Astronomical Twilight 6:09 AM EST 7:22 PM EST
Moon 7:51 AM EST (1/31) 7:12 PM EST (1/31)
Length of Visible Light 11h 03m
Length of Day
10h 06m
New Moon, 1% of the Moon is Illuminated
Jan 31
New Moon
Feb 6
First Quarter
Feb 14
Full
Feb 22
Last Quarter
Mar 1
New

Hourly Weather History & Observations

Time (EST) Temp. Windchill Dew Point Humidity Pressure Visibility Wind Dir Wind Speed Gust Speed Precip Events Conditions
12:53 AM 28.9 °F 19.8 °F 12.9 °F 51% 29.99 in 10.0 mi SSW 10.4 mph - N/A   Overcast
1:53 AM 28.0 °F 18.1 °F 12.9 °F 53% 30.00 in 10.0 mi SSW 11.5 mph - N/A   Mostly Cloudy
2:53 AM 28.0 °F 18.6 °F 14.0 °F 56% 30.02 in 10.0 mi SSW 10.4 mph - N/A   Overcast
3:53 AM 28.0 °F 18.6 °F 15.1 °F 58% 30.01 in 10.0 mi SSW 10.4 mph - N/A   Overcast
4:53 AM 28.9 °F 19.8 °F 15.1 °F 56% 30.05 in 10.0 mi SSW 10.4 mph - N/A   Overcast
5:53 AM 28.9 °F 21.1 °F 15.1 °F 56% 30.05 in 10.0 mi SSW 8.1 mph - N/A   Overcast
6:53 AM 28.0 °F 20.0 °F 16.0 °F 61% 30.07 in 10.0 mi South 8.1 mph - N/A   Partly Cloudy
7:53 AM 28.0 °F 20.8 °F 16.0 °F 61% 30.08 in 10.0 mi South 6.9 mph - N/A   Partly Cloudy
8:53 AM 28.9 °F 20.4 °F 16.0 °F 58% 30.12 in 10.0 mi SSW 9.2 mph - N/A   Mostly Cloudy
9:53 AM 30.0 °F 21.7 °F 16.0 °F 56% 30.12 in 10.0 mi SSW 9.2 mph - N/A   Overcast
10:53 AM 32.0 °F 23.6 °F 14.0 °F 48% 30.14 in 10.0 mi SW 10.4 mph - N/A   Overcast
11:53 AM 32.0 °F 22.5 °F 16.0 °F 52% 30.14 in 10.0 mi SSW 12.7 mph - N/A   Overcast
12:53 PM 33.1 °F 21.9 °F 18.0 °F 54% 30.13 in 10.0 mi SW 18.4 mph - N/A   Overcast
1:53 PM 30.9 °F 21.7 °F 23.0 °F 72% 30.13 in 8.0 mi SW 11.5 mph - N/A   Overcast
2:53 PM 30.9 °F 24.3 °F 24.1 °F 76% 30.14 in 7.0 mi SW 6.9 mph - 0.00 in   Overcast
3:53 PM 30.0 °F 24.1 °F 26.1 °F 85% 30.17 in 4.0 mi SSW 5.8 mph - 0.00 in Snow Light Snow
4:22 PM 30.0 °F 22.4 °F 26.1 °F 85% 30.13 in 2.0 mi SSW 8.1 mph - 0.00 in Snow Light Snow
4:29 PM 30.0 °F 23.2 °F 26.1 °F 85% 30.13 in 1.8 mi SSW 6.9 mph - 0.00 in Snow Light Snow
4:37 PM 30.0 °F 24.1 °F 27.0 °F 88% 30.13 in 2.5 mi SSW 5.8 mph - 0.00 in Snow Light Snow
4:51 PM 30.2 °F 25.4 °F 26.6 °F 86% 30.13 in 1.8 mi SSW 4.6 mph - 0.00 in Snow Light Snow
4:53 PM 30.0 °F 24.1 °F 27.0 °F 88% 30.17 in 1.8 mi SSW 5.8 mph - 0.00 in Snow Light Snow
5:22 PM 30.0 °F 25.2 °F 27.0 °F 88% 30.12 in 2.5 mi South 4.6 mph - 0.00 in Snow Light Snow
5:32 PM 30.0 °F 26.5 °F 27.0 °F 88% 30.12 in 3.0 mi SSW 3.5 mph - 0.00 in   Overcast
5:53 PM 28.9 °F 23.9 °F 27.0 °F 92% 30.17 in 2.5 mi South 4.6 mph - 0.00 in   Overcast
6:03 PM 28.9 °F 22.8 °F 27.0 °F 92% 30.13 in 3.0 mi South 5.8 mph - N/A   Overcast
6:53 PM 28.9 °F 23.9 °F 27.0 °F 92% 30.17 in 3.0 mi SSE 4.6 mph - N/A   Overcast
7:24 PM 28.9 °F 25.2 °F 27.0 °F 92% 30.15 in 3.0 mi South 3.5 mph - 0.00 in Snow Light Snow
7:32 PM 28.9 °F 23.9 °F 28.0 °F 96% 30.14 in 2.5 mi SSE 4.6 mph - 0.00 in Snow Light Snow
7:53 PM 28.9 °F 23.9 °F 27.0 °F 92% 30.18 in 3.0 mi SSE 4.6 mph - 0.00 in   Overcast
8:15 PM 28.9 °F 23.9 °F 27.0 °F 92% 30.14 in 2.5 mi SSE 4.6 mph - N/A   Overcast
8:38 PM 28.9 °F 25.2 °F 27.0 °F 92% 30.14 in 3.0 mi SSE 3.5 mph - N/A   Overcast
8:53 PM 28.9 °F 22.8 °F 27.0 °F 92% 30.17 in 3.0 mi SE 5.8 mph - N/A   Mostly Cloudy
9:40 PM 28.9 °F - 27.0 °F 92% 30.12 in 2.5 mi Calm Calm - N/A   Overcast
9:53 PM 28.9 °F 25.2 °F 27.0 °F 92% 30.16 in 2.5 mi ESE 3.5 mph - N/A   Overcast
10:34 PM 28.9 °F 25.2 °F 27.0 °F 92% 30.11 in 3.0 mi SSE 3.5 mph - N/A   Overcast
10:53 PM 28.9 °F - 27.0 °F 92% 30.15 in 4.0 mi Calm Calm - N/A   Overcast
11:46 PM 28.9 °F - 27.0 °F 92% 30.11 in 2.5 mi Calm Calm - N/A   Overcast
11:53 PM 28.9 °F - 26.1 °F 89% 30.15 in 2.5 mi Calm Calm - N/A   Overcast